Location: W�di Arminna
(22.3950°N, 31.9103°E)
Time: 21:28:22
(UTC+00:00)

Daily predictions for brighter satellites

Satellite Brightness Start Highest point End
(mag) Time Altitude Azimuth Time Altitude Azimuth Time Altitude Azimuth
Cosmos 1697 Rocket 3.0 16:52:03 10° SSW 16:57:38 75° WNW 17:03:14 10° NNE
OAO 3 Copernicus 4.4 16:52:48 10° WNW 16:57:50 76° NNE 17:02:52 10° ESE
Okean O Rocket 4.3 16:56:11 10° SW 16:59:21 20° W 17:02:31 10° NW
Fermi 4.3 17:03:12 10° SW 17:07:04 39° SSE 17:10:56 10° E
SEDSat Delta rocket 3.4 17:02:44 10° WNW 17:07:27 83° SSW 17:12:54 10° ESE
Cosmos 2278 3.9 17:02:08 10° S 17:07:35 49° ESE 17:13:02 10° NNE
IRS-1C Rocket 4.3 17:02:23 10° S 17:07:38 79° WSW 17:12:53 10° NNW
Cosmos 2366 rocket 4.0 17:06:00 10° N 17:12:20 72° E 17:18:39 10° S
NOSS 3-2 (C) 3.8 17:08:14 10° S 17:12:53 32° ESE 17:17:48 10° NE
NOSS 3-2 (A) 3.0 17:08:24 10° SSW 17:13:38 73° ESE 17:19:16 10° NNE
MOS 1-B Rocket 3.9 17:12:43 10° NNE 17:18:21 84° ESE 17:24:29 10° SSW
Cosmos 2369 4.2 17:13:11 10° SSW 17:18:50 67° WNW 17:24:31 10° N
USA 234 4.0 17:13:49 10° SSE 17:20:06 49° SW 17:26:24 10° NW
GPS 2-12 Rocket1 4.3 17:17:20 10° WSW 17:21:05 27° SSW 17:24:26 12° SE
Cosmos 1980 Rocket 2.2 17:19:18 10° SSW 17:24:57 89° WNW 17:30:36 10° NNE
Cosmos 1371 Rocket 4.3 17:20:19 10° S 17:25:09 42° ESE 17:30:01 10° NNE
SL-08 RB Rocket 4.3 17:23:15 10° S 17:27:37 56° W 17:32:00 10° NNW
OBJECT-B 1.9 17:25:51 16° SE 17:27:41 27° ENE 17:30:27 10° NNE
Genesis I 4.3 17:25:13 10° SSE 17:28:10 22° ESE 17:31:11 10° ENE
NATO 3D Rocket 3.2 17:29:11 10° WSW 17:33:53 73° S 17:38:11 14° E
Cosmos 1782 Rocket 3.5 17:30:24 10° N 17:34:42 66° E 17:38:54 10° SSE
Cosmos 1356 Rocket 3.3 17:31:27 10° N 17:35:33 86° E 17:39:34 10° S
ERS-2 2.2 17:35:37 10° N 17:39:15 78° WNW 17:42:52 10° SSW
CSL-04 Rocket 3.9 17:35:16 10° S 17:40:42 76° WSW 17:46:14 10° NNW
IUS-7 SRM-1 4.1 17:31:35 10° WNW 17:42:50 47° SSW 17:44:50 22° SSE
Sich 1 Rocket 4.3 17:41:08 10° NNE 17:45:08 34° E 17:46:54 25° SE
Cosmos 1300 Rocket 4.4 17:41:47 10° NNE 17:45:36 31° E 17:47:02 25° ESE
USA 238 DEB 3.6 17:41:12 10° SSW 17:47:37 82° WNW 17:54:14 10° NNE
USA 238 3.6 17:41:19 10° SSW 17:47:43 83° WNW 17:54:20 10° NNE
BREEZE-M R/B 4.1 17:46:47 10° W 17:48:35 18° SW 17:50:00 13° S
Hubble Space Telescope 1.1 17:48:08 10° WNW 17:52:12 58° NNE 17:54:23 25° E
Cosmos 1805 3.6 17:48:54 10° NNE 17:52:35 42° E 17:53:44 32° SE
ASTRO E2 3.7 17:51:04 10° SSW 17:54:08 27° SSE 17:54:08 27° SSE
USA 186 2.1 17:54:57 26° SSW 17:56:00 45° W 17:58:32 10° NNW
Cosmos 2285 Rocket 4.3 17:50:06 10° S 17:56:10 46° E 18:02:14 10° NNE
ATLAS 2A CENTAUR R/B 4.1 17:26:49 10° SW 17:57:45 54° SSE 18:03:08 21° E
IUS-13 SRM-1 3.8 17:55:22 10° WNW 17:58:36 56° N 18:11:49 10° E
Cosmos 2219 3.5 17:56:21 10° NNW 18:02:04 70° WSW 18:06:23 18° S
USA 215 3.5 17:56:14 10° ENE 18:02:20 41° SE 18:08:25 10° SSW
Atlas Centaur 2 2.2 18:00:06 10° W 18:03:54 40° SSW 18:05:22 31° SSE
Meteor 1-12 Rocket 4.4 17:59:02 10° NNW 18:04:38 71° W 18:09:46 13° S
Palapa 6 Rocket 4.4 17:57:23 10° W 18:04:48 89° N 18:10:17 23° E
Ariane Rocket 3.2 18:04:13 32° SE 18:06:14 52° ENE 18:11:09 10° N
CENTAUR R/B 2.9 18:02:02 10° SW 18:07:14 57° WNW 18:13:16 10° NNE
Delta 128 4.4 18:03:19 10° W 18:07:39 49° N 18:11:21 15° ENE
Resurs 1-3 3.8 18:06:33 39° SE 18:07:44 52° ENE 18:11:59 10° N
Cosmos 2297 Rocket 3.1 18:04:15 10° NNW 18:09:37 46° WSW 18:14:15 14° S
Cosmos 2263 Rocket 4.0 18:06:53 10° NNE 18:09:57 15° ENE 18:10:30 14° ENE
Helios 1A Rocket 4.0 18:08:32 15° SSW 18:11:34 43° W 18:15:26 10° NNW
Cosmos 2227 Rocket 2.6 18:07:20 10° NNW 18:12:53 62° WSW 18:16:33 22° S
Cosmos 1733 3.0 18:12:18 10° N 18:16:09 78° E 18:16:39 64° SSE
Cosmos 1400 Rocket 3.1 18:13:30 10° N 18:16:52 44° ENE 18:16:52 44° ENE
Aurora 2 Rocket 4.1 18:08:02 10° WNW 18:18:10 79° SSW 18:22:01 35° ESE
Timation 1 Rocket 4.4 18:13:09 10° NNW 18:19:08 78° WSW 18:22:09 31° S
Cosmos 2084 4.1 18:16:55 10° NW 18:21:21 55° WSW 18:22:49 37° S
IUS-12 SRM-1 4.1 18:05:51 10° W 18:24:43 89° N 18:26:25 43° E
Cosmos 1378 Rocket 3.4 18:24:15 52° S 18:25:17 89° E 18:29:37 10° N
Cosmos 1339 Rocket 4.4 18:20:50 18° S 18:25:40 89° E 18:31:52 10° N
Landsat 7 4.5 18:27:16 38° ENE 18:27:16 38° ENE 18:31:30 10° N
Yuri Rocket 4.3 18:23:12 10° SW 18:29:38 63° SSE 18:36:09 19° ENE
Cosmos 1140 Rocket 3.6 18:32:42 10° N 18:37:49 53° ENE 18:37:51 53° ENE
FUSE 3.8 18:33:24 10° W 18:38:46 70° SSW 18:39:09 67° SSE
Resurs 01 Rocket 1.7 18:39:18 64° NE 18:39:18 64° NE 18:43:17 10° N
Meteor 1-21 4.1 18:37:59 40° S 18:40:11 88° W 18:45:52 10° N
SL-16 R/B 2.4 18:39:25 12° SSW 18:44:38 69° WNW 18:50:17 10° NNE
Cosmos 1452 Rocket 3.3 18:45:25 76° E 18:45:25 76° E 18:50:40 10° NNE
SPOT 1/Viking Rocket 4.3 18:46:15 37° NE 18:46:15 37° NE 18:50:16 10° N
Okean 2 Rocket 3.7 18:42:26 10° NNW 18:46:48 52° W 18:47:25 48° WSW
Cosmos 2322 Rocket 2.1 18:47:03 43° SSW 18:49:00 85° WNW 18:54:43 10° NNE
Cosmos 2360 Rocket 3.2 18:51:21 33° NE 18:51:21 33° NE 18:54:42 10° NNE
Cosmos 2082 4.1 18:46:04 10° NNW 18:51:40 57° WSW 18:52:56 47° SSW
Cosmos 2151 Rocket 4.1 18:51:34 10° NNW 18:55:39 53° W 18:55:39 53° W
Cosmos 2237 4.2 19:02:41 76° NNE 19:02:41 76° NNE 19:07:56 10° NNE
Cosmos 1241 Rocket 4.3 19:01:16 10° NNW 19:07:35 81° ENE 19:07:35 81° ENE
SPOT 3 Rocket 3.9 19:12:31 60° WNW 19:12:31 60° WNW 19:17:11 10° NNW
Cosmos 407 Rocket 4.0 19:07:02 10° NNW 19:11:54 53° W 19:11:54 53° W
ATLAS 3B R/B 4.0 19:18:42 24° NE 19:18:42 24° NE 19:21:18 10° NE
Hubble Space Telescope 3.7 19:29:27 10° W 19:29:41 11° W 19:29:41 11° W
Terra 4.1 19:39:41 18° NNE 19:39:41 18° NNE 19:41:00 10° N
Lacrosse 5 4.2 19:38:35 10° N 19:40:21 16° NNE 19:40:21 16° NNE
Cosmos 2333 Rocket 4.1 19:52:46 21° NNE 19:52:46 21° NNE 19:54:36 10° NNE
Cosmos 2263 Rocket 3.5 19:48:32 10° NNW 19:52:13 37° NW 19:52:13 37° NW
Cosmos 2219 Rocket 4.3 20:16:37 21° NNE 20:16:37 21° NNE 20:18:22 10° NNE
Cosmos 1943 Rocket 4.1 23:41:14 10° NNW 23:43:15 23° N 23:43:15 23° N
